Time,TemperatureF,DewpointF,PressureIn,WindDirection,WindDirectionDegrees,WindSpeedMPH,WindSpeedGustMPH,Humidity,HourlyPrecipIn,Conditions,Clouds,dailyrainin,SoftwareType,DateUTC
2013-02-20 00:05:00,32.7,27.8,0.00,NW,324,0.0,0.0,82,0.00,,---,0.00,VWS V14.00,2013-02-20 08:05:00,
2013-02-20 00:11:00,32.5,27.7,0.00,NW,324,0.0,0.0,82,0.00,,---,0.00,VWS V14.00,2013-02-20 08:11:00,
2013-02-20 00:16:00,32.4,27.5,0.00,NW,324,0.0,0.0,82,0.00,,---,0.00,VWS V14.00,2013-02-20 08:16:00,
2013-02-20 00:22:00,32.2,27.3,0.00,NW,324,0.0,0.0,82,0.00,,---,0.00,VWS V14.00,2013-02-20 08:22:00,
2013-02-20 00:27:00,32.2,27.6,0.00,NW,324,0.0,0.0,83,0.00,,---,0.00,VWS V14.00,2013-02-20 08:27:00,
2013-02-20 00:33:00,32.7,28.4,0.00,NW,324,0.0,0.0,84,0.00,,---,0.00,VWS V14.00,2013-02-20 08:33:00,
2013-02-20 00:39:00,33.3,29.2,0.00,NW,324,0.0,0.0,85,0.00,,---,0.00,VWS V14.00,2013-02-20 08:39:00,
2013-02-20 00:44:00,33.6,29.6,0.00,NW,324,0.0,0.0,85,0.00,,---,0.00,VWS V14.00,2013-02-20 08:44:00,
2013-02-20 00:50:00,33.8,29.8,0.00,NW,324,0.0,0.0,85,0.00,,---,0.00,VWS V14.00,2013-02-20 08:50:00,
2013-02-20 00:55:00,33.8,29.8,0.00,NW,324,0.0,0.0,85,0.00,,---,0.00,VWS V14.00,2013-02-20 08:55:00,
2013-02-20 01:01:00,33.8,29.5,0.00,NW,324,0.0,0.0,84,0.00,,---,0.00,VWS V14.00,2013-02-20 09:01:00,
2013-02-20 01:07:00,33.6,29.3,0.00,NW,324,0.0,0.0,84,0.00,,---,0.00,VWS V14.00,2013-02-20 09:07:00,
2013-02-20 01:12:00,33.6,29.3,0.00,NW,324,0.0,0.0,84,0.00,,---,0.00,VWS V14.00,2013-02-20 09:12:00,
2013-02-20 01:18:00,33.6,29.6,0.00,NW,324,0.0,0.0,85,0.00,,---,0.00,VWS V14.00,2013-02-20 09:18:00,
2013-02-20 01:23:00,33.4,29.4,0.00,NW,324,0.0,0.0,85,0.00,,---,0.00,VWS V14.00,2013-02-20 09:23:00,
2013-02-20 01:29:00,33.3,29.0,0.00,NW,324,0.0,0.0,84,0.00,,---,0.00,VWS V14.00,2013-02-20 09:29:00,
2013-02-20 01:35:00,33.1,29.1,0.00,NW,324,0.0,0.0,85,0.00,,---,0.00,VWS V14.00,2013-02-20 09:35:00,
2013-02-20 01:40:00,33.1,29.1,0.00,NW,324,0.0,0.0,85,0.00,,---,0.00,VWS V14.00,2013-02-20 09:40:00,
2013-02-20 01:46:00,33.1,29.1,0.00,NW,324,0.0,0.0,85,0.00,,---,0.00,VWS V14.00,2013-02-20 09:46:00,
2013-02-20 01:52:00,32.9,28.9,0.00,NW,324,0.0,0.0,85,0.00,,---,0.00,VWS V14.00,2013-02-20 09:52:00,
2013-02-20 01:57:00,32.5,28.2,0.00,NW,324,0.0,0.0,84,0.00,,---,0.00,VWS V14.00,2013-02-20 09:57:00,
2013-02-20 02:03:00,32.4,28.1,0.00,NW,324,0.0,0.0,84,0.00,,---,0.00,VWS V14.00,2013-02-20 10:03:00,
2013-02-20 02:08:00,32.7,28.7,0.00,NW,324,0.0,0.0,85,0.00,,---,0.00,VWS V14.00,2013-02-20 10:08:00,
2013-02-20 02:14:00,33.1,29.4,0.00,NW,324,0.0,0.0,86,0.00,,---,0.00,VWS V14.00,2013-02-20 10:14:00,
2013-02-20 02:19:00,33.3,29.5,0.00,NW,324,0.0,0.0,86,0.00,,---,0.00,VWS V14.00,2013-02-20 10:19:00,
2013-02-20 02:25:00,33.6,29.9,0.00,NW,324,0.0,0.0,86,0.00,,---,0.00,VWS V14.00,2013-02-20 10:25:00,
2013-02-20 02:31:00,33.8,29.8,0.00,NW,324,0.0,0.0,85,0.00,,---,0.00,VWS V14.00,2013-02-20 10:31:00,
2013-02-20 02:36:00,33.6,29.9,0.00,NW,324,0.0,0.0,86,0.00,,---,0.00,VWS V14.00,2013-02-20 10:36:00,
2013-02-20 02:41:00,33.4,29.4,0.00,NW,324,0.0,0.0,85,0.00,,---,0.00,VWS V14.00,2013-02-20 10:41:00,
2013-02-20 02:46:00,33.3,29.2,0.00,NW,324,0.0,0.0,85,0.00,,---,0.00,VWS V14.00,2013-02-20 10:46:00,
2013-02-20 02:52:00,32.9,28.9,0.00,NW,324,0.0,0.0,85,0.00,,---,0.00,VWS V14.00,2013-02-20 10:52:00,
2013-02-20 02:58:00,32.7,28.7,0.00,NW,324,0.0,0.0,85,0.00,,---,0.00,VWS V14.00,2013-02-20 10:58:00,
2013-02-20 03:04:00,32.7,28.7,0.00,NW,324,0.0,0.0,85,0.00,,---,0.00,VWS V14.00,2013-02-20 11:04:00,
2013-02-20 03:10:00,32.7,28.7,0.00,NW,324,0.0,0.0,85,0.00,,---,0.00,VWS V14.00,2013-02-20 11:10:00,
2013-02-20 03:15:00,33.1,29.4,0.00,NW,324,0.0,0.0,86,0.00,,---,0.00,VWS V14.00,2013-02-20 11:15:00,
2013-02-20 03:21:00,34.0,30.5,0.00,NW,324,0.0,0.0,87,0.00,,---,0.00,VWS V14.00,2013-02-20 11:21:00,
2013-02-20 03:27:00,34.7,31.5,0.00,NW,324,0.0,0.0,88,0.00,,---,0.00,VWS V14.00,2013-02-20 11:27:00,
2013-02-20 03:32:00,34.7,31.2,0.00,NW,324,0.0,0.0,87,0.00,,---,0.00,VWS V14.00,2013-02-20 11:32:00,
2013-02-20 03:38:00,34.5,30.8,0.00,NW,324,0.0,0.0,86,0.00,,---,0.00,VWS V14.00,2013-02-20 11:38:00,
2013-02-20 03:43:00,34.2,30.1,0.00,NW,324,0.0,0.0,85,0.00,,---,0.00,VWS V14.00,2013-02-20 11:43:00,
2013-02-20 03:49:00,34.0,29.7,0.00,NW,324,0.0,0.0,84,0.00,,---,0.00,VWS V14.00,2013-02-20 11:49:00,
2013-02-20 03:54:00,33.8,29.5,0.00,NW,324,0.0,0.0,84,0.00,,---,0.00,VWS V14.00,2013-02-20 11:54:00,
2013-02-20 04:00:00,33.6,29.6,0.00,NW,324,0.0,0.0,85,0.00,,---,0.00,VWS V14.00,2013-02-20 12:00:00,
2013-02-20 04:06:00,33.4,29.1,0.00,NW,324,0.0,0.0,84,0.00,,---,0.00,VWS V14.00,2013-02-20 12:06:00,
2013-02-20 04:11:00,33.4,29.1,0.00,NW,324,0.0,0.0,84,0.00,,---,0.00,VWS V14.00,2013-02-20 12:11:00,
2013-02-20 04:16:00,33.6,29.6,0.00,NW,324,0.0,0.0,85,0.00,,---,0.00,VWS V14.00,2013-02-20 12:16:00,
2013-02-20 04:21:00,33.6,29.6,0.00,NW,324,0.0,0.0,85,0.00,,---,0.00,VWS V14.00,2013-02-20 12:21:00,
2013-02-20 04:27:00,33.6,29.6,0.00,NW,324,0.0,0.0,85,0.00,,---,0.00,VWS V14.00,2013-02-20 12:27:00,
2013-02-20 04:32:00,33.8,29.5,0.00,NW,324,0.0,0.0,84,0.00,,---,0.00,VWS V14.00,2013-02-20 12:32:00,
2013-02-20 04:37:00,33.8,29.5,0.00,NW,324,0.0,0.0,84,0.00,,---,0.00,VWS V14.00,2013-02-20 12:37:00,
2013-02-20 04:42:00,33.8,29.5,0.00,NW,324,0.0,0.0,84,0.00,,---,0.00,VWS V14.00,2013-02-20 12:42:00,
2013-02-20 04:48:00,33.6,29.3,0.00,NW,324,0.0,0.0,84,0.00,,---,0.00,VWS V14.00,2013-02-20 12:48:00,
2013-02-20 04:53:00,33.4,29.1,0.00,NW,324,0.0,0.0,84,0.00,,---,0.00,VWS V14.00,2013-02-20 12:53:00,
2013-02-20 04:59:00,33.3,29.0,0.00,NW,324,0.0,0.0,84,0.00,,---,0.00,VWS V14.00,2013-02-20 12:59:00,
2013-02-20 05:05:00,33.3,29.0,0.00,NW,324,0.0,0.0,84,0.00,,---,0.00,VWS V14.00,2013-02-20 13:05:00,
2013-02-20 05:10:00,33.3,29.0,0.00,NW,324,0.0,0.0,84,0.00,,---,0.00,VWS V14.00,2013-02-20 13:10:00,
2013-02-20 05:16:00,33.6,29.6,0.00,NW,324,0.0,0.0,85,0.00,,---,0.00,VWS V14.00,2013-02-20 13:16:00,
2013-02-20 05:21:00,33.8,29.8,0.00,NW,324,0.0,0.0,85,0.00,,---,0.00,VWS V14.00,2013-02-20 13:21:00,
2013-02-20 05:27:00,34.0,29.7,0.00,NW,324,0.0,0.0,84,0.00,,---,0.00,VWS V14.00,2013-02-20 13:27:00,
2013-02-20 05:33:00,34.2,30.1,0.00,NW,324,0.0,0.0,85,0.00,,---,0.00,VWS V14.00,2013-02-20 13:33:00,
2013-02-20 05:38:00,34.3,30.0,0.00,NW,324,0.0,0.0,84,0.00,,---,0.00,VWS V14.00,2013-02-20 13:38:00,
2013-02-20 05:44:00,34.3,30.0,0.00,NW,324,0.0,0.0,84,0.00,,---,0.00,VWS V14.00,2013-02-20 13:44:00,
2013-02-20 05:49:00,34.3,29.7,0.00,NW,324,0.0,0.0,83,0.00,,---,0.00,VWS V14.00,2013-02-20 13:49:00,
2013-02-20 05:55:00,34.3,29.7,0.00,NW,324,0.0,0.0,83,0.00,,---,0.00,VWS V14.00,2013-02-20 13:55:00,
2013-02-20 06:00:00,34.5,29.9,0.00,NW,324,0.0,0.0,83,0.00,,---,0.00,VWS V14.00,2013-02-20 14:00:00,
2013-02-20 06:06:00,34.7,30.1,0.00,NW,324,0.0,0.0,83,0.00,,---,0.00,VWS V14.00,2013-02-20 14:06:00,
2013-02-20 06:11:00,35.1,30.4,0.00,NW,324,0.0,0.0,83,0.00,,---,0.00,VWS V14.00,2013-02-20 14:11:00,
2013-02-20 06:16:00,35.4,30.8,0.00,NW,324,0.0,0.0,83,0.00,,---,0.00,VWS V14.00,2013-02-20 14:16:00,
2013-02-20 06:22:00,35.6,30.4,0.00,NW,324,0.0,0.0,81,0.00,,---,0.00,VWS V14.00,2013-02-20 14:22:00,
2013-02-20 06:27:00,36.1,30.9,0.00,NW,324,0.0,0.0,81,0.00,,---,0.00,VWS V14.00,2013-02-20 14:27:00,
2013-02-20 06:33:00,36.3,30.4,0.00,NW,324,0.0,0.0,79,0.00,,---,0.00,VWS V14.00,2013-02-20 14:33:00,
2013-02-20 06:38:00,36.7,30.5,0.00,NW,324,0.0,0.0,78,0.00,,---,0.00,VWS V14.00,2013-02-20 14:38:00,
2013-02-20 06:44:00,36.7,30.2,0.00,NW,324,0.0,0.0,77,0.00,,---,0.00,VWS V14.00,2013-02-20 14:44:00,
2013-02-20 06:50:00,36.5,30.0,0.00,NW,324,0.0,0.0,77,0.00,,---,0.00,VWS V14.00,2013-02-20 14:50:00,
2013-02-20 06:55:00,36.5,29.7,0.00,NW,324,0.0,0.0,76,0.00,,---,0.00,VWS V14.00,2013-02-20 14:55:00,
2013-02-20 07:00:00,36.7,29.8,0.00,NNW,327,0.0,0.0,76,0.00,,---,0.00,VWS V14.00,2013-02-20 15:00:00,
2013-02-20 07:05:00,37.0,29.2,0.00,NNW,333,0.0,0.0,73,0.00,,---,0.00,VWS V14.00,2013-02-20 15:05:00,
2013-02-20 07:11:00,37.8,29.6,0.00,NNW,337,0.0,0.0,72,0.00,,---,0.00,VWS V14.00,2013-02-20 15:11:00,
2013-02-20 07:17:00,38.1,28.9,0.00,North,0,2.7,4.0,69,0.00,,---,0.00,VWS V14.00,2013-02-20 15:17:00,
2013-02-20 07:23:00,38.5,25.8,0.00,North,350,0.0,3.1,60,0.00,,---,0.00,VWS V14.00,2013-02-20 15:23:00,
2013-02-20 07:29:00,38.8,26.2,0.00,North,0,0.0,0.0,60,0.00,,---,0.00,VWS V14.00,2013-02-20 15:29:00,
2013-02-20 07:34:00,39.4,25.0,0.00,NNW,330,2.7,4.9,56,0.00,,---,0.00,VWS V14.00,2013-02-20 15:34:00,
2013-02-20 07:40:00,39.9,25.5,0.00,North,3,0.0,0.0,56,0.00,,---,0.00,VWS V14.00,2013-02-20 15:40:00,
2013-02-20 07:46:00,40.3,25.4,0.00,North,353,3.1,6.3,55,0.00,,---,0.00,VWS V14.00,2013-02-20 15:46:00,
2013-02-20 07:51:00,40.5,24.7,0.00,ENE,60,2.7,5.4,53,0.00,,---,0.00,VWS V14.00,2013-02-20 15:51:00,
2013-02-20 07:56:00,40.6,25.3,0.00,NNW,339,4.0,4.0,54,0.00,,---,0.00,VWS V14.00,2013-02-20 15:56:00,
2013-02-20 08:02:00,41.0,25.2,0.00,NNW,343,4.0,4.0,53,0.00,,---,0.00,VWS V14.00,2013-02-20 16:02:00,
2013-02-20 08:07:00,41.2,25.8,0.00,North,353,3.1,5.4,54,0.00,,---,0.00,VWS V14.00,2013-02-20 16:07:00,
2013-02-20 08:12:00,41.4,25.5,0.00,NNW,343,2.7,8.1,53,0.00,,---,0.00,VWS V14.00,2013-02-20 16:12:00,
2013-02-20 08:18:00,41.7,25.9,0.00,NNE,23,0.0,2.7,53,0.00,,---,0.00,VWS V14.00,2013-02-20 16:18:00,
2013-02-20 08:23:00,42.1,26.2,0.00,North,6,7.6,7.6,53,0.00,,---,0.00,VWS V14.00,2013-02-20 16:23:00,
2013-02-20 08:29:00,42.4,25.6,0.00,NNE,24,0.0,2.7,51,0.00,,---,0.00,VWS V14.00,2013-02-20 16:29:00,
2013-02-20 08:35:00,43.2,25.3,0.00,North,2,3.1,5.4,49,0.00,,---,0.00,VWS V14.00,2013-02-20 16:35:00,
2013-02-20 08:40:00,43.7,25.3,0.00,NNE,32,2.7,5.8,48,0.00,,---,0.00,VWS V14.00,2013-02-20 16:40:00,
2013-02-20 08:46:00,44.2,25.8,0.00,North,11,2.7,3.6,48,0.00,,---,0.00,VWS V14.00,2013-02-20 16:46:00,
2013-02-20 08:51:00,44.8,26.8,0.00,East,98,0.0,2.7,49,0.00,,---,0.00,VWS V14.00,2013-02-20 16:51:00,
2013-02-20 08:57:00,45.3,25.8,0.00,North,353,4.0,4.0,46,0.00,,---,0.00,VWS V14.00,2013-02-20 16:57:00,
2013-02-20 09:03:00,45.9,25.7,0.00,NE,43,0.0,8.1,45,0.00,,---,0.00,VWS V14.00,2013-02-20 17:03:00,
2013-02-20 09:08:00,46.2,26.1,0.00,East,79,0.0,4.0,45,0.00,,---,0.00,VWS V14.00,2013-02-20 17:08:00,
2013-02-20 09:14:00,46.8,26.6,0.00,ESE,102,0.0,8.1,45,0.00,,---,0.00,VWS V14.00,2013-02-20 17:14:00,
2013-02-20 09:19:00,47.1,25.8,0.00,East,93,0.0,4.0,43,0.00,,---,0.00,VWS V14.00,2013-02-20 17:19:00,
2013-02-20 09:25:00,47.7,26.3,0.00,North,0,4.9,4.9,43,0.00,,---,0.00,VWS V14.00,2013-02-20 17:25:00,
2013-02-20 09:30:00,48.0,26.6,0.00,NNE,25,5.4,5.4,43,0.00,,---,0.00,VWS V14.00,2013-02-20 17:30:00,
2013-02-20 09:36:00,48.6,26.0,0.00,North,9,5.8,6.3,41,0.00,,---,0.00,VWS V14.00,2013-02-20 17:36:00,
2013-02-20 09:41:00,49.1,25.8,0.00,North,10,0.0,10.5,40,0.00,,---,0.00,VWS V14.00,2013-02-20 17:41:00,
2013-02-20 09:47:00,49.3,26.0,0.00,North,5,2.7,5.8,40,0.00,,---,0.00,VWS V14.00,2013-02-20 17:47:00,
2013-02-20 09:52:00,49.6,26.3,0.00,North,4,2.7,2.7,40,0.00,,---,0.00,VWS V14.00,2013-02-20 17:52:00,
2013-02-20 09:58:00,50.2,26.8,0.00,ENE,76,5.4,5.4,40,0.00,,---,0.00,VWS V14.00,2013-02-20 17:58:00,
2013-02-20 10:03:00,50.5,26.5,0.00,NE,38,5.4,6.7,39,0.00,,---,0.00,VWS V14.00,2013-02-20 18:03:00,
2013-02-20 10:08:00,50.9,26.8,0.00,East,99,3.6,8.7,39,0.00,,---,0.00,VWS V14.00,2013-02-20 18:08:00,
2013-02-20 10:14:00,51.3,27.2,0.00,North,1,4.0,5.8,39,0.00,,---,0.00,VWS V14.00,2013-02-20 18:14:00,
2013-02-20 10:19:00,51.8,27.0,0.00,North,357,2.2,8.3,38,0.00,,---,0.00,VWS V14.00,2013-02-20 18:19:00,
2013-02-20 10:25:00,52.0,27.2,0.00,ENE,65,3.1,5.4,38,0.00,,---,0.00,VWS V14.00,2013-02-20 18:25:00,
2013-02-20 10:30:00,52.0,27.2,0.00,ESE,103,3.1,6.3,38,0.00,,---,0.00,VWS V14.00,2013-02-20 18:30:00,
2013-02-20 10:36:00,52.2,27.3,0.00,ENE,58,3.1,5.8,38,0.00,,---,0.00,VWS V14.00,2013-02-20 18:36:00,
2013-02-20 10:42:00,52.5,27.7,0.00,North,0,7.6,7.6,38,0.00,,---,0.00,VWS V14.00,2013-02-20 18:42:00,
2013-02-20 10:47:00,52.9,27.3,0.00,NNW,346,11.0,11.0,37,0.00,,---,0.00,VWS V14.00,2013-02-20 18:47:00,
2013-02-20 10:53:00,53.1,27.5,0.00,NE,43,4.0,8.3,37,0.00,,---,0.00,VWS V14.00,2013-02-20 18:53:00,
2013-02-20 10:58:00,53.6,28.0,0.00,WNW,295,4.9,4.9,37,0.00,,---,0.00,VWS V14.00,2013-02-20 18:58:00,
2013-02-20 11:04:00,54.0,28.3,0.00,NNE,33,3.1,10.5,37,0.00,,---,0.00,VWS V14.00,2013-02-20 19:04:00,
2013-02-20 11:10:00,53.8,28.1,0.00,North,0,8.7,9.6,37,0.00,,---,0.00,VWS V14.00,2013-02-20 19:10:00,
2013-02-20 11:15:00,54.1,28.5,0.00,NNW,333,5.8,7.2,37,0.00,,---,0.00,VWS V14.00,2013-02-20 19:15:00,
2013-02-20 11:21:00,54.5,28.8,0.00,North,2,8.3,11.0,37,0.00,,---,0.00,VWS V14.00,2013-02-20 19:21:00,
2013-02-20 11:26:00,54.7,28.9,0.00,North,357,4.9,10.1,37,0.00,,---,0.00,VWS V14.00,2013-02-20 19:26:00,
2013-02-20 11:32:00,55.0,29.3,0.00,NNE,12,6.7,8.1,37,0.00,,---,0.00,VWS V14.00,2013-02-20 19:32:00,
2013-02-20 11:37:00,55.4,28.9,0.00,NNW,336,5.4,8.7,36,0.00,,---,0.00,VWS V14.00,2013-02-20 19:37:00,
2013-02-20 11:43:00,55.9,29.4,0.00,North,6,6.3,6.7,36,0.00,,---,0.00,VWS V14.00,2013-02-20 19:43:00,
2013-02-20 11:49:00,56.1,29.5,0.00,ENE,63,5.4,8.3,36,0.00,,---,0.00,VWS V14.00,2013-02-20 19:49:00,
2013-02-20 11:55:00,56.5,29.9,0.00,NNE,33,2.7,4.0,36,0.00,,---,0.00,VWS V14.00,2013-02-20 19:55:00,
2013-02-20 12:00:00,56.7,30.0,0.00,ENE,70,2.7,4.0,36,0.00,,---,0.00,VWS V14.00,2013-02-20 20:00:00,
2013-02-20 12:06:00,56.7,30.0,0.00,North,7,4.9,7.6,36,0.00,,---,0.00,VWS V14.00,2013-02-20 20:06:00,
2013-02-20 12:11:00,56.8,30.2,0.00,NE,41,2.7,11.0,36,0.00,,---,0.00,VWS V14.00,2013-02-20 20:11:00,
2013-02-20 12:17:00,56.8,30.2,0.00,WNW,302,4.9,8.1,36,0.00,,---,0.00,VWS V14.00,2013-02-20 20:17:00,
2013-02-20 12:22:00,57.2,29.8,0.00,NNW,335,5.4,8.7,35,0.00,,---,0.00,VWS V14.00,2013-02-20 20:22:00,
2013-02-20 12:28:00,57.6,30.1,0.00,ENE,60,3.1,8.1,35,0.00,,---,0.00,VWS V14.00,2013-02-20 20:28:00,
2013-02-20 12:34:00,57.9,30.5,0.00,NE,48,3.1,13.2,35,0.00,,---,0.00,VWS V14.00,2013-02-20 20:34:00,
2013-02-20 12:39:00,57.9,30.5,0.00,North,349,3.1,6.3,35,0.00,,---,0.00,VWS V14.00,2013-02-20 20:39:00,
2013-02-20 12:45:00,57.9,30.5,0.00,North,3,8.3,10.1,35,0.00,,---,0.00,VWS V14.00,2013-02-20 20:45:00,
2013-02-20 12:50:00,57.9,30.5,0.00,NE,55,2.7,10.5,35,0.00,,---,0.00,VWS V14.00,2013-02-20 20:50:00,
2013-02-20 12:56:00,57.9,30.5,0.00,NNW,344,6.3,11.9,35,0.00,,---,0.00,VWS V14.00,2013-02-20 20:56:00,
2013-02-20 13:02:00,58.1,30.6,0.00,North,353,11.9,11.9,35,0.00,,---,0.00,VWS V14.00,2013-02-20 21:02:00,
2013-02-20 13:07:00,58.1,30.6,0.00,NE,37,8.7,10.1,35,0.00,,---,0.00,VWS V14.00,2013-02-20 21:07:00,
2013-02-20 13:13:00,58.1,30.6,0.00,NNE,32,5.8,7.2,35,0.00,,---,0.00,VWS V14.00,2013-02-20 21:13:00,
2013-02-20 13:18:00,58.5,30.9,0.00,North,357,8.1,8.1,35,0.00,,---,0.00,VWS V14.00,2013-02-20 21:18:00,
2013-02-20 13:24:00,58.6,31.1,0.00,NNW,343,7.6,12.3,35,0.00,,---,0.00,VWS V14.00,2013-02-20 21:24:00,
2013-02-20 13:29:00,58.6,31.1,0.00,North,0,5.4,10.5,35,0.00,,---,0.00,VWS V14.00,2013-02-20 21:29:00,
2013-02-20 13:35:00,58.5,30.9,0.00,ENE,65,3.6,3.6,35,0.00,,---,0.00,VWS V14.00,2013-02-20 21:35:00,
2013-02-20 13:41:00,58.8,31.2,0.00,North,0,5.4,7.6,35,0.00,,---,0.00,VWS V14.00,2013-02-20 21:41:00,
2013-02-20 13:46:00,59.0,31.4,0.00,SE,138,3.1,8.1,35,0.00,,---,0.00,VWS V14.00,2013-02-20 21:46:00,
2013-02-20 13:52:00,58.8,31.2,0.00,NNW,341,6.3,8.3,35,0.00,,---,0.00,VWS V14.00,2013-02-20 21:52:00,
2013-02-20 13:58:00,59.0,31.4,0.00,WNW,287,4.0,4.0,35,0.00,,---,0.00,VWS V14.00,2013-02-20 21:58:00,
2013-02-20 14:03:00,59.2,31.6,0.00,North,2,3.1,6.7,35,0.00,,---,0.00,VWS V14.00,2013-02-20 22:03:00,
2013-02-20 14:08:00,59.5,31.9,0.00,North,4,6.3,13.2,35,0.00,,---,0.00,VWS V14.00,2013-02-20 22:08:00,
2013-02-20 14:13:00,59.7,32.0,0.00,North,357,7.6,8.3,35,0.00,,---,0.00,VWS V14.00,2013-02-20 22:13:00,
2013-02-20 14:19:00,59.7,32.0,0.00,ENE,59,2.7,6.3,35,0.00,,---,0.00,VWS V14.00,2013-02-20 22:19:00,
2013-02-20 14:24:00,59.7,32.0,0.00,North,0,9.6,9.6,35,0.00,,---,0.00,VWS V14.00,2013-02-20 22:24:00,
2013-02-20 14:29:00,59.5,31.9,0.00,North,0,3.1,3.1,35,0.00,,---,0.00,VWS V14.00,2013-02-20 22:29:00,
2013-02-20 14:34:00,59.7,32.0,0.00,ENE,57,0.0,5.4,35,0.00,,---,0.00,VWS V14.00,2013-02-20 22:34:00,
2013-02-20 14:40:00,59.9,32.2,0.00,North,353,6.3,8.3,35,0.00,,---,0.00,VWS V14.00,2013-02-20 22:40:00,
2013-02-20 14:45:00,59.7,32.0,0.00,North,357,5.8,5.8,35,0.00,,---,0.00,VWS V14.00,2013-02-20 22:45:00,
2013-02-20 14:51:00,59.7,32.0,0.00,North,4,5.4,5.8,35,0.00,,---,0.00,VWS V14.00,2013-02-20 22:51:00,
2013-02-20 14:56:00,59.9,32.2,0.00,NE,55,3.1,5.8,35,0.00,,---,0.00,VWS V14.00,2013-02-20 22:56:00,
2013-02-20 15:02:00,59.9,32.2,0.00,NNW,327,6.3,7.6,35,0.00,,---,0.00,VWS V14.00,2013-02-20 23:02:00,
2013-02-20 15:08:00,59.9,32.2,0.00,NNW,337,8.7,9.2,35,0.00,,---,0.00,VWS V14.00,2013-02-20 23:08:00,
2013-02-20 15:13:00,59.9,32.2,0.00,North,357,6.3,8.1,35,0.00,,---,0.00,VWS V14.00,2013-02-20 23:13:00,
2013-02-20 15:19:00,59.7,32.0,0.00,North,2,5.4,6.3,35,0.00,,---,0.00,VWS V14.00,2013-02-20 23:19:00,
2013-02-20 15:24:00,59.9,32.2,0.00,NNW,344,8.7,8.7,35,0.00,,---,0.00,VWS V14.00,2013-02-20 23:24:00,
2013-02-20 15:30:00,60.1,32.4,0.00,NNW,348,3.6,8.7,35,0.00,,---,0.00,VWS V14.00,2013-02-20 23:30:00,
2013-02-20 15:35:00,60.1,32.4,0.00,North,353,8.3,8.3,35,0.00,,---,0.00,VWS V14.00,2013-02-20 23:35:00,
2013-02-20 15:41:00,59.9,32.2,0.00,NE,34,4.0,7.6,35,0.00,,---,0.00,VWS V14.00,2013-02-20 23:41:00,
2013-02-20 15:47:00,59.9,32.2,0.00,NNE,14,10.5,10.5,35,0.00,,---,0.00,VWS V14.00,2013-02-20 23:47:00,
2013-02-20 15:52:00,59.9,32.2,0.00,North,6,5.4,5.4,35,0.00,,---,0.00,VWS V14.00,2013-02-20 23:52:00,
2013-02-20 15:58:00,59.9,32.2,0.00,North,7,6.3,10.5,35,0.00,,---,0.00,VWS V14.00,2013-02-20 23:58:00,
2013-02-20 16:04:00,59.5,31.9,0.00,North,11,6.3,7.6,35,0.00,,---,0.00,VWS V14.00,2013-02-21 00:04:00,
2013-02-20 16:09:00,59.4,31.7,0.00,North,357,7.6,7.6,35,0.00,,---,0.00,VWS V14.00,2013-02-21 00:09:00,
2013-02-20 16:15:00,59.4,31.7,0.00,ENE,70,8.3,8.3,35,0.00,,---,0.00,VWS V14.00,2013-02-21 00:15:00,
2013-02-20 16:20:00,59.2,31.6,0.00,NNW,344,7.2,8.1,35,0.00,,---,0.00,VWS V14.00,2013-02-21 00:20:00,
2013-02-20 16:26:00,59.4,31.7,0.00,ENE,61,5.8,8.1,35,0.00,,---,0.00,VWS V14.00,2013-02-21 00:26:00,
2013-02-20 16:32:00,59.4,31.7,0.00,NNE,23,3.6,4.0,35,0.00,,---,0.00,VWS V14.00,2013-02-21 00:32:00,
2013-02-20 16:37:00,59.5,31.9,0.00,ENE,74,5.4,5.4,35,0.00,,---,0.00,VWS V14.00,2013-02-21 00:37:00,
2013-02-20 16:43:00,59.5,31.9,0.00,NNW,333,8.1,8.1,35,0.00,,---,0.00,VWS V14.00,2013-02-21 00:43:00,
2013-02-20 16:48:00,59.5,31.9,0.00,North,5,3.1,7.6,35,0.00,,---,0.00,VWS V14.00,2013-02-21 00:48:00,
2013-02-20 16:54:00,59.2,31.6,0.00,NNW,329,11.4,11.4,35,0.00,,---,0.00,VWS V14.00,2013-02-21 00:54:00,
2013-02-20 17:00:00,59.2,31.6,0.00,NE,35,3.1,6.7,35,0.00,,---,0.00,VWS V14.00,2013-02-21 01:00:00,
2013-02-20 17:05:00,58.8,31.2,0.00,ESE,113,5.4,7.6,35,0.00,,---,0.00,VWS V14.00,2013-02-21 01:05:00,
2013-02-20 17:11:00,58.5,30.9,0.00,North,3,5.8,6.3,35,0.00,,---,0.00,VWS V14.00,2013-02-21 01:11:00,
2013-02-20 17:16:00,57.9,30.5,0.00,North,353,4.9,7.2,35,0.00,,---,0.00,VWS V14.00,2013-02-21 01:16:00,
2013-02-20 17:22:00,57.6,30.1,0.00,ENE,68,3.1,5.8,35,0.00,,---,0.00,VWS V14.00,2013-02-21 01:22:00,
2013-02-20 17:27:00,57.2,29.8,0.00,NNE,30,0.0,8.7,35,0.00,,---,0.00,VWS V14.00,2013-02-21 01:27:00,
2013-02-20 17:33:00,56.8,29.5,0.00,NNE,12,3.6,7.2,35,0.00,,---,0.00,VWS V14.00,2013-02-21 01:33:00,
2013-02-20 17:39:00,56.5,29.2,0.00,NNE,27,3.6,5.4,35,0.00,,---,0.00,VWS V14.00,2013-02-21 01:39:00,
2013-02-20 17:44:00,56.1,28.9,0.00,NNE,17,2.2,6.3,35,0.00,,---,0.00,VWS V14.00,2013-02-21 01:44:00,
2013-02-20 17:50:00,55.8,28.5,0.00,NNE,15,5.8,6.3,35,0.00,,---,0.00,VWS V14.00,2013-02-21 01:50:00,
2013-02-20 17:56:00,55.4,28.2,0.00,NNW,334,0.0,0.0,35,0.00,,---,0.00,VWS V14.00,2013-02-21 01:56:00,
2013-02-20 18:01:00,55.2,28.8,0.00,NNE,19,0.0,5.8,36,0.00,,---,0.00,VWS V14.00,2013-02-21 02:01:00,
2013-02-20 18:07:00,54.9,28.4,0.00,North,1,2.7,3.1,36,0.00,,---,0.00,VWS V14.00,2013-02-21 02:07:00,
2013-02-20 18:12:00,54.5,28.1,0.00,North,0,3.1,3.1,36,0.00,,---,0.00,VWS V14.00,2013-02-21 02:12:00,
2013-02-20 18:18:00,54.3,28.0,0.00,NNW,339,4.9,4.9,36,0.00,,---,0.00,VWS V14.00,2013-02-21 02:18:00,
2013-02-20 18:24:00,54.1,27.8,0.00,NE,41,0.0,4.0,36,0.00,,---,0.00,VWS V14.00,2013-02-21 02:24:00,
2013-02-20 18:29:00,54.1,27.8,0.00,North,353,0.0,3.1,36,0.00,,---,0.00,VWS V14.00,2013-02-21 02:29:00,
2013-02-20 18:35:00,54.0,27.6,0.00,North,6,0.0,2.7,36,0.00,,---,0.00,VWS V14.00,2013-02-21 02:35:00,
2013-02-20 18:40:00,53.6,27.3,0.00,North,353,3.1,5.8,36,0.00,,---,0.00,VWS V14.00,2013-02-21 02:40:00,
2013-02-20 18:46:00,53.4,27.1,0.00,East,98,0.0,3.1,36,0.00,,---,0.00,VWS V14.00,2013-02-21 02:46:00,
2013-02-20 18:52:00,53.1,26.8,0.00,North,353,0.0,0.0,36,0.00,,---,0.00,VWS V14.00,2013-02-21 02:52:00,
2013-02-20 18:57:00,52.7,26.5,0.00,North,0,0.0,0.0,36,0.00,,---,0.00,VWS V14.00,2013-02-21 02:57:00,
2013-02-20 19:03:00,52.2,26.0,0.00,NNE,27,0.0,0.0,36,0.00,,---,0.00,VWS V14.00,2013-02-21 03:03:00,
2013-02-20 19:08:00,51.6,26.2,0.00,NNE,27,0.0,0.0,37,0.00,,---,0.00,VWS V14.00,2013-02-21 03:08:00,
2013-02-20 19:14:00,51.1,25.7,0.00,East,99,0.0,3.1,37,0.00,,---,0.00,VWS V14.00,2013-02-21 03:14:00,
2013-02-20 19:20:00,50.5,25.2,0.00,ENE,69,0.0,0.0,37,0.00,,---,0.00,VWS V14.00,2013-02-21 03:20:00,
2013-02-20 19:25:00,50.0,24.8,0.00,ENE,69,0.0,0.0,37,0.00,,---,0.00,VWS V14.00,2013-02-21 03:25:00,
2013-02-20 19:31:00,49.8,24.6,0.00,ENE,69,0.0,0.0,37,0.00,,---,0.00,VWS V14.00,2013-02-21 03:31:00,
2013-02-20 19:36:00,49.5,24.3,0.00,ENE,69,0.0,0.0,37,0.00,,---,0.00,VWS V14.00,2013-02-21 03:36:00,
2013-02-20 19:42:00,49.1,24.0,0.00,ENE,69,0.0,0.0,37,0.00,,---,0.00,VWS V14.00,2013-02-21 03:42:00,
2013-02-20 19:48:00,48.6,23.5,0.00,ENE,69,0.0,0.0,37,0.00,,---,0.00,VWS V14.00,2013-02-21 03:48:00,
2013-02-20 19:53:00,48.2,23.2,0.00,ENE,69,0.0,0.0,37,0.00,,---,0.00,VWS V14.00,2013-02-21 03:53:00,
2013-02-20 19:59:00,47.5,23.2,0.00,ENE,69,0.0,0.0,38,0.00,,---,0.00,VWS V14.00,2013-02-21 03:59:00,
2013-02-20 20:04:00,46.9,22.7,0.00,ENE,69,0.0,0.0,38,0.00,,---,0.00,VWS V14.00,2013-02-21 04:04:00,
2013-02-20 20:10:00,46.0,21.9,0.00,ENE,69,0.0,0.0,38,0.00,,---,0.00,VWS V14.00,2013-02-21 04:10:00,
2013-02-20 20:16:00,45.3,21.2,0.00,ENE,69,0.0,0.0,38,0.00,,---,0.00,VWS V14.00,2013-02-21 04:16:00,
2013-02-20 20:21:00,44.8,21.4,0.00,ENE,69,0.0,0.0,39,0.00,,---,0.00,VWS V14.00,2013-02-21 04:21:00,
2013-02-20 20:27:00,44.1,20.7,0.00,ENE,69,0.0,0.0,39,0.00,,---,0.00,VWS V14.00,2013-02-21 04:27:00,
2013-02-20 20:32:00,43.7,21.0,0.00,ENE,69,0.0,0.0,40,0.00,,---,0.00,VWS V14.00,2013-02-21 04:32:00,
2013-02-20 20:38:00,43.2,20.5,0.00,ENE,69,0.0,0.0,40,0.00,,---,0.00,VWS V14.00,2013-02-21 04:38:00,
2013-02-20 20:44:00,42.8,20.2,0.00,ENE,69,0.0,0.0,40,0.00,,---,0.00,VWS V14.00,2013-02-21 04:44:00,
2013-02-20 20:49:00,42.8,20.2,0.00,ENE,69,0.0,0.0,40,0.00,,---,0.00,VWS V14.00,2013-02-21 04:49:00,
2013-02-20 20:55:00,42.8,20.2,0.00,ENE,69,0.0,0.0,40,0.00,,---,0.00,VWS V14.00,2013-02-21 04:55:00,
2013-02-20 21:00:00,43.3,20.6,0.00,ENE,59,0.0,0.0,40,0.00,,---,0.00,VWS V14.00,2013-02-21 05:00:00,
2013-02-20 21:01:00,43.5,20.8,0.00,North,357,0.0,3.6,40,0.00,,---,0.00,VWS V14.00,2013-02-21 05:01:00,
2013-02-20 21:03:00,43.9,21.1,0.00,North,353,2.7,3.6,40,0.00,,---,0.00,VWS V14.00,2013-02-21 05:03:00,
2013-02-20 21:07:00,44.6,21.2,0.00,North,353,2.7,4.9,39,0.00,,---,0.00,VWS V14.00,2013-02-21 05:07:00,
2013-02-20 21:13:00,45.5,22.0,0.00,NE,49,0.0,2.2,39,0.00,,---,0.00,VWS V14.00,2013-02-21 05:13:00,
2013-02-20 21:19:00,46.2,22.6,0.00,NE,49,0.0,0.0,39,0.00,,---,0.00,VWS V14.00,2013-02-21 05:19:00,
2013-02-20 21:24:00,46.2,22.6,0.00,NE,50,0.0,0.0,39,0.00,,---,0.00,VWS V14.00,2013-02-21 05:24:00,
2013-02-20 21:30:00,46.6,22.4,0.00,North,350,0.0,0.0,38,0.00,,---,0.00,VWS V14.00,2013-02-21 05:30:00,
2013-02-20 21:35:00,46.6,22.4,0.00,North,357,0.0,0.0,38,0.00,,---,0.00,VWS V14.00,2013-02-21 05:35:00,
2013-02-20 21:41:00,46.6,22.4,0.00,East,84,0.0,0.0,38,0.00,,---,0.00,VWS V14.00,2013-02-21 05:41:00,
2013-02-20 21:47:00,46.2,22.6,0.00,East,84,0.0,0.0,39,0.00,,---,0.00,VWS V14.00,2013-02-21 05:47:00,
2013-02-20 21:52:00,45.9,22.3,0.00,East,84,0.0,0.0,39,0.00,,---,0.00,VWS V14.00,2013-02-21 05:52:00,
2013-02-20 21:58:00,45.1,21.7,0.00,East,84,0.0,0.0,39,0.00,,---,0.00,VWS V14.00,2013-02-21 05:58:00,
2013-02-20 22:03:00,44.4,21.0,0.00,East,84,0.0,0.0,39,0.00,,---,0.00,VWS V14.00,2013-02-21 06:03:00,
2013-02-20 22:09:00,43.5,20.8,0.00,East,84,0.0,0.0,40,0.00,,---,0.00,VWS V14.00,2013-02-21 06:09:00,
2013-02-20 22:15:00,43.0,20.3,0.00,East,84,0.0,0.0,40,0.00,,---,0.00,VWS V14.00,2013-02-21 06:15:00,
2013-02-20 22:20:00,42.3,20.3,0.00,East,84,0.0,0.0,41,0.00,,---,0.00,VWS V14.00,2013-02-21 06:20:00,
2013-02-20 22:26:00,41.7,19.8,0.00,East,84,0.0,0.0,41,0.00,,---,0.00,VWS V14.00,2013-02-21 06:26:00,
2013-02-20 22:31:00,41.2,19.3,0.00,East,84,0.0,0.0,41,0.00,,---,0.00,VWS V14.00,2013-02-21 06:31:00,
2013-02-20 22:37:00,40.5,19.7,0.00,East,84,0.0,0.0,43,0.00,,---,0.00,VWS V14.00,2013-02-21 06:37:00,
2013-02-20 22:42:00,39.9,19.8,0.00,East,84,0.0,0.0,44,0.00,,---,0.00,VWS V14.00,2013-02-21 06:42:00,
2013-02-20 22:48:00,39.4,19.3,0.00,East,84,0.0,0.0,44,0.00,,---,0.00,VWS V14.00,2013-02-21 06:48:00,
2013-02-20 22:53:00,38.8,19.3,0.00,East,84,0.0,0.0,45,0.00,,---,0.00,VWS V14.00,2013-02-21 06:53:00,
2013-02-20 22:58:00,38.7,19.7,0.00,East,84,0.0,0.0,46,0.00,,---,0.00,VWS V14.00,2013-02-21 06:58:00,
2013-02-20 23:04:00,38.3,19.4,0.00,East,84,0.0,0.0,46,0.00,,---,0.00,VWS V14.00,2013-02-21 07:04:00,
2013-02-20 23:09:00,38.1,19.7,0.00,East,84,0.0,0.0,47,0.00,,---,0.00,VWS V14.00,2013-02-21 07:09:00,
2013-02-20 23:15:00,37.9,20.0,0.00,East,84,0.0,0.0,48,0.00,,---,0.00,VWS V14.00,2013-02-21 07:15:00,
2013-02-20 23:20:00,37.9,20.5,0.00,East,84,0.0,0.0,49,0.00,,---,0.00,VWS V14.00,2013-02-21 07:20:00,
2013-02-20 23:26:00,37.6,20.2,0.00,East,84,0.0,0.0,49,0.00,,---,0.00,VWS V14.00,2013-02-21 07:26:00,
2013-02-20 23:32:00,37.6,20.2,0.00,East,84,0.0,0.0,49,0.00,,---,0.00,VWS V14.00,2013-02-21 07:32:00,
2013-02-20 23:37:00,37.4,20.5,0.00,East,84,0.0,0.0,50,0.00,,---,0.00,VWS V14.00,2013-02-21 07:37:00,
2013-02-20 23:43:00,37.0,20.6,0.00,East,84,0.0,0.0,51,0.00,,---,0.00,VWS V14.00,2013-02-21 07:43:00,
2013-02-20 23:48:00,36.9,20.4,0.00,East,84,0.0,0.0,51,0.00,,---,0.00,VWS V14.00,2013-02-21 07:48:00,
2013-02-20 23:54:00,36.5,20.6,0.00,East,84,0.0,0.0,52,0.00,,---,0.00,VWS V14.00,2013-02-21 07:54:00,